Regional Weather Roundup
Issued by NWS Mobile, AL

Home | Current Version | Previous Version | Text Only | Print | Product List | Glossary On
Versions: 1 2 3 4 5 6 7 8 9 10 11 12 13 14 15 16 17 18 19 20 21 22 23 24 25 26 27 28 29 30 31 32 33 34 35 36 37 38 39 40 41 42 43 44 45 46 47 48 49 50
000
ASUS44 KMOB 251013
RWRMOB
REGIONAL WEATHER ROUNDUP
NATIONAL WEATHER SERVICE MOBILE AL
500 AM CDT TUE JUL 25 2017

NOTE: "FAIR" INDICATES FEW OR NO CLOUDS BELOW 12,000 FEET WITH NO
      SIGNIFICANT WEATHER AND/OR OBSTRUCTIONS TO VISIBILITY.

  * THESE STATIONS ARE PART OF THE UNIVERSITY OF SOUTH ALABAMA
    MESONET AND ARE NOT UNDER NWS OR FAA QUALITY CONTROL.

ALZ061>064-251100-
COASTAL ALABAMA

CITY           SKY/WX    TMP DP  RH WIND       PRES   REMARKS
MOBILE REG APT CLOUDY    74  72  93 CALM      30.09R
BROOKLEY FIELD MOCLDY    76  75  97 W3        30.09R
USA CAMPUS*      N/A     68  66  94 CALM      30.09R
DOG RIVER*     NOT AVBL


CITY           SKY/WX    TMP DP  RH WIND       PRES   REMARKS
GULF SHORES    CLEAR     73  73 100 CALM      30.08R

$$

ALZ051>060-251100-
INTERIOR SOUTHWEST AND SOUTH CENTRAL ALABAMA

CITY           SKY/WX    TMP DP  RH WIND       PRES   REMARKS
GREENVILLE     CLOUDY    74  71  91 W5        30.07R
EVERGREEN      CLOUDY    74  72  93 CALM      30.09R
ATMORE*        NOT AVBL
ANDALUSIA/OPP  MOCLDY    76  72  87 W5        30.08R
ANDALUSIA*       N/A     72  72 100 W3        30.09R
FLORALA APT    PTCLDY    73  70  90 CALM      30.10R
FLORALA*         N/A     72  72 100 CALM      30.79R

$$

FLZ001>006-251100-
WESTERN FLORIDA PANHANDLE

CITY           SKY/WX    TMP DP  RH WIND       PRES   REMARKS
PENSACOLA      PTCLDY    78  72  81 W6        30.07R
NAS PENSACOLA  CLEAR     75  73  93 NW3       30.07R
MILTON         PTCLDY    73  73 100 W5        30.08R
WHTNG S FIELD  PTCLDY    75  73  93 CALM      30.08R


CITY           SKY/WX    TMP DP  RH WIND       PRES   REMARKS
JAY*             N/A     73  72  94 NW3       30.08R
DUKE FIELD     CLEAR     74  71  93 CALM      30.07R
CRESTVIEW      PTCLDY    74  71  91 CALM      30.09R
VALPARAISO     CLEAR     75  72  92 NW3       30.07R
DESTIN         CLEAR     82  73  74 NW5       30.06R

$$

MSZ076-079-251100-
INTERIOR SOUTHEAST MISSISSIPPI

CITY           SKY/WX    TMP DP  RH WIND       PRES   REMARKS
LEAKESVILLE*     N/A     73  73 100 CALM      30.10R
AGRICOLA*      NOT AVBL

$$

MARINE OBSERVATIONS

STATION/POSITION TIME  TEMP    WIND        PRES    WAVE
                       AIR SEA DIR/SP/G            HT/PER
                 (UTC) (F)     (DEG/KT/KT) (MB)    (FT/S)
PASCAGOULA       0948   77     320/  2/  2 1018.3R
PETIT BOIS ISLND 0948   81     260/  8/ 10 1019.2R
GRAND BAY        0845   76     290/  3     1018.0S
KATRINA CUT      0930   82     280/ 10     1018.0R
CEDAR POINT      0930   82     280/ 10     1018.3R
E DAUPHIN ISLAND 0900   80     270/  5/  6 1017.6R
MIDDLE BAY LIGHT 0930   79     240/  8     1018.0S
USCG MOBILE BAY  0948   75 85  290/  2/  3 1019.2R
STATE DOCKS      0948   76 86              1018.4R
MEAHER PARK      0930   78     270/  4     1018.3R
WEEKS BAY        0845   73                   N/A
FORT MORGAN      0948   81     270/ 10/ 12   N/A
12 S ORANGE BCH  0850   82 83  260/ 10/ 12 1017.4R   1/ 4
PENSACOLA BAY    0948   77 85              1018.5R
64 S DAUPHIN ISL 0950   84 85  250/ 12/ 14 1018.6R   2/ 3
67 S FORT MORGAN 0930   82     250/ 10     1018.3R

$$

SELECTED LOCATIONS ACROSS THE REGION

CITY           SKY/WX    TMP DP  RH WIND       PRES   REMARKS
NEW ORLEANS    CLOUDY    77  76  96 SW7       30.09R
GULFPORT       CLOUDY    74  74 100 CALM      30.07R
PASCAGOULA AP  MOCLDY    72  70  93 CALM      30.08R
PASCAGOULA*      N/A    N/A N/A N/A CALM        N/A
HATTIESBURG    CLOUDY    75  74  96 CALM      30.08R
LAUREL         CLOUDY    74  74 100 CALM      30.09R FOG
MERIDIAN       CLOUDY    76  74  93 SW3       30.07R
JACKSON        MOCLDY    76  75  97 CALM      30.07S
MONTGOMERY     CLOUDY    77  72  84 SW3       30.07R
TROY           CLOUDY    73  73 100 N3        30.08R
ASHFORD*         N/A     72  72 100 W3        30.09R
DOTHAN         PTCLDY    75  74  96 W6        30.11R
PANAMA CITY    CLEAR     76  73  91 NW6       30.05R

$$




USA.gov is the U.S. government's official web portal to all federal, state and local government web resources and services.